OpenBCM V1.08-5-g2f4a (Linux)

Packet Radio Mailbox

IZ3LSV

[San Dona' di P. JN]

 Login: GUEST





  
I6KZR  > KEPLER   09.10.12 10:19l 234 Lines 10730 Bytes #999 (0) @ EU
BID : 1631_I6KZR
Read: GUEST
Subj: 2L Keplerian Elements #355
Path: IZ3LSV<IV3SCP<SR1BSZ<F1OYP<F1OYP<VK4TUB<VK4WIT<EA5RQ<EA5VDR<EA5RCI<
      EA5RKE<EA2CMN<EA1URF<EC1L<SR9ZAA<RW6HQN<OK0PBB<OK0PHL<OK0PPL<OK0POK<
      9A0YRB<HA5OB<HA3PG<SV1AAW<IK6PYS<I6DH
Sent: 1001220/1952Z @:I6DH.IMAR.ITA.EU #:5570 [Ascoli P.] FBB5.15c $:1631_I6KZR
From: I6KZR@I6DH.IMAR.ITA.EU
To  : KEPLER@EU

R.001220/2033z @:I6KZR.I6DH.#IMAR.ITA.EU $:1631_I6KZR Sally 3.1.064 

Messaggio inviato da: I6KZR@I6DH.IMAR.ITA.EU        

AO-10
1 14129  83058B   00354.06173193  .00000054  00000 1  10000-3 0  7264
2 14129  26.6864 295.8479 6002471 110.4484 321.2431  2.05864767103765
AO-40
1 26609  00072B   00354.78150683 -.00000292  00000 1  00000 1 0   166
2 26609   6.2479 237.0656 8128421 195.4843  97.8405  1.26866570   613
FO-20
1 20480  90013C   00354.85612425  .00000031  00000 1  14564-3 0  3027
2 20480  99.0747  90.6837 0541232 355.1405   4.4565 12.83284724509093
FO-29
1 24278  96046B   00354.69462360 -.00000004  00000 1  29119-4 0  4093
2 24278  98.5694 238.0193 0351992 106.7896 257.2167 13.52751692214376
MIR
1 16609  86017A   00355.50090278  .00104306  00000 1  43930-3 0  3358
2 16609  51.6471  22.0421 0015987 133.7108  36.2097 15.84468857848487
RS-12/13
1 21089  91007A   00355.54472581  .00000088  00000 1  77455-4 0  2986
2 21089  82.9234  47.5328 0029034 329.5875  30.3597 13.74240012495274
RS-15
1 23439  94085A   00354.77815022 -.00000038  00000 1  13757-3 0  5085
2 23439  64.8173 240.3349 0167380 257.4843 100.7310 11.27539116246432
UO-14
1 20437  90005B   00355.55922053  .00000283  00000 1  12432-3 0  5808
2 20437  98.3871  56.1502 0011749  26.8752 333.3054 14.30600680569510
UO-15
1 20438  90005C   00354.69168779  .00000122  00000 1  63630-4 0  3683
2 20438  98.3583  48.2109 0011191  38.7306 321.4676 14.29703277569134
AO-16
1 20439  90005D   00355.24925608  .00000283  00000 1  12438-3 0  3786
2 20439  98.4280  63.1415 0012158  30.1025 330.0855 14.30701054569491
DO-17
1 20440  90005E   00355.23169808  .00000327  00000 1  14065-3 0  3720
2 20440  98.4401  65.4042 0011993  30.1405 330.0466 14.30903152569544
WO-18
1 20441  90005F   00354.92925992  .00000278  00000 1  12215-3 0  3898
2 20441  98.4384  64.7321 0012331  33.0514 327.1437 14.30795990569495
LO-19
1 20442  90005G   00355.27205509  .00000328  00000 1  14087-3 0  3786
2 20442  98.4478  66.8506 0012857  29.0815 331.1081 14.30939047569583
AO-21
1 21087  91006A   00355.49453615  .00000088  00000 1  76761-4 0  2376
2 21087  82.9406 182.4206 0034401 295.3752  64.3843 13.74747490496325
UO-22
1 21575  91050B   00354.95345536  .00000387  00000 1  14132-3 0   923
2 21575  98.1367  12.7653 0007938   7.4955 352.6343 14.37958150494610
KO-23
1 22077  92052B   00354.97746839 -.00000037  00000 1  10000-3 0  9705
2 22077  66.0870 341.3178 0015802 275.6533  84.2681 12.86356641392613
KO-25
1 22828  93061F   00354.66455535  .00000296  00000 1  13392-3 0  8393
2 22828  98.3799  45.4766 0011103  56.5378 303.6861 14.28881661345151
IO-26
1 22826  93061D   00354.68059766  .00000281  00000 1  12881-3 0  8575
2 22826  98.3839  45.2972 0009820  75.0385 285.1896 14.28465169376986
AO-27
1 22825  93061C   00355.24432107  .00000209  00000 1  10058-3 0  8654
2 22825  98.3809  45.1252 0009470  73.6081 286.6141 14.28305321377039
MO-30
1 24305  96052B   00353.84413392  .00000204  00000 1  20364-3 0  4697
2 24305  82.9354 128.1314 0029012 246.9485 112.8604 13.73263355214815
TO-31
1 25396  98043C   00354.97706650 -.00000044  00000 1  00000 1 0  4580
2 25396  98.7057  68.4338 0001828 271.7959  88.3023 14.22856964127072
GO-32
1 25397  98043D   00354.94845750  .00000163  00000 1  92622-4 0  3791
2 25397  98.7030  68.0758 0000533 306.8952  53.2177 14.22516592127072
SO-33
1 25509  98061B   00355.20358593  .00000923  00000 1  17690-3 0  1995
2 25509  31.4473 289.0567 0363642 252.6474 103.4082 14.25297437112383
PO-34
1 25520  98064B   00354.60940960  .00003168  00000 1  19371-3 0  2576
2 25520  28.4619  64.7342 0007046  99.7279 260.4109 15.07189498117870
SO-35
1 25636  99008C   00355.47280655  .00000621  00000 1  17505-3 0  2788
2 25636  96.4514 154.4007 0151086 312.9560  45.9054 14.41614182 95925
WO-39
1 26061  00004A   00353.54304388  .00000923  00000 1  34104-3 0  1367
2 26061 100.1922 249.0346 0036758 353.1461   6.9213 14.35175367 46814
ISS
1 25544  98067A   00355.21480448  .00043703  00000 1  42711-3 0  4040
2 25544  51.5744 274.8127 0007494 249.5983 265.9916 15.65679565119074
POSAT
1 22829  93061G   00354.68303224  .00000268  00000 1  12261-3 0  8598
2 22829  98.3766  45.7755 0011098  60.8922 299.3370 14.28922720377077
JAWSAT
1 26065  00004E   00354.56108656  .00000393  00000 1  15925-3 0  1073
2 26065 100.1937 250.0174 0038002 352.7068   7.3554 14.34429981 46936
OPAL
1 26062  00004B   00354.20010006  .00249530  00000 1  31539-1 0  4025
2 26062 100.2265 260.4172 0023821 354.1989   5.8947 14.80177460 47429
OCS
1 26063  00004C   00354.26397474  .00000323  00000 1  13448-3 0  1088
2 26063 100.1944 249.6528 0037272 352.3525   7.7081 14.34492003 46890
UNK3
1 26093  00004L   00353.25200634  .00002418  00000 1  84446-3 0  1522
2 26093 100.1862 248.7587 0037350 355.6700   4.4180 14.36056661 44604
UNK4
1 26094  00004M   00353.68943583  .00001200  00000 1  43638-3 0  1017
2 26094 100.1892 249.0173 0037853 355.2447   4.8468 14.35218663 44137
SAUDISAT 1A
1 26548  00057D   00353.90387931  .00002076  00000 1  32024-3 0   437
2 26548  64.5599 296.4685 0010415  14.7322 345.4138 14.75950201 12314
UNISAT
1 26547  00057C   00354.46925303  .00003252  00000 1  52133-3 0   451
2 26547  64.5618 295.8643 0018158  67.5481 292.7627 14.73216427 12394
SAUDISAT 1B
1 26549  00057E   00354.22316903  .00001727  00000 1  28292-3 0   394
2 26549  64.5514 296.2983 0014576  59.5356 300.7180 14.73847739 12351
TIUNGSAT-1
1 26545  00057A   00348.81497596  .00001502  00000 1  24385-3 0   464
2 26545  64.5622 312.4596 0011305  43.0051 317.1930 14.74735616 11552
MEGSAT-1
1 26546  00057B   00300.90113007  .00002017  00000 1  31077-3 0   441
2 26546  64.5565  98.4503 0004641  22.5030 337.6284 14.76095605  4507
DNEPR-1 R/B
1 26550  00057F   00300.95678734  .00000721  00000 1  29452-3 0   482
2 26550  64.5580 111.6189 0521266 122.5374 242.7151 13.78368992  4216
DNEPR-1 DEB
1 26551  00057G   00300.94213223  .00009253  00000 1  13064-2 0   626
2 26551  64.5561  98.1324 0007997 337.0117  23.0632 14.77613920  4504
NOAA 9
1 15427  84123A   00335.85266196  .00000850  00000 1  46608-3 0  6886
2 15427  98.7679  46.3051 0015257  13.2476 346.9094 14.14402976823656
NOAA 10
1 16969  86073A   00349.92964479  .00000398  00000 1  18495-3 0  6808
2 16969  98.6584 333.1709 0011692 245.8471 114.1486 14.26058319740464
NOAA 11
1 19531  88089A   00349.90722737  .00000252  00000 1  15723-3 0  5227
2 19531  98.9842  54.9888 0011426 300.4397  59.5633 14.13797751630345
NOAA 12
1 21263  91032A   00354.90950437  .00000326  00000 1  16101-3 0  9744
2 21263  98.5604 345.7164 0012713 160.4143 199.7529 14.23791111498655
NOAA 13
1 22739  93050A   00336.04119143  .00000600  00000 1  35676-3 0  3502
2 22739  99.2092 342.0743 0009825 347.7826  12.3104 14.11474530376636
NOAA 14
1 23455  94089A   00354.91440687  .00000288  00000 1  18121-3 0  5631
2 23455  99.1622 337.1672 0008944 293.9930  66.0305 14.12532930307829
NOAA 15
1 25338  98030A   00354.82817695  .00000194  00000 1  10436-3 0   171
2 25338  98.6195  19.9751 0011641  95.8783 264.3723 14.23431695135279
NOAA 16
1 26536  00055A   00354.47458394  .00000279  00000 1  17924-3 0  1152
2 26536  98.8052 297.4165 0011360  26.6749 333.5519 14.10998417 12551
METEOR 2-16
1 18312  87068A   00334.93219369  .00000178  00000 1  14596-3 0  8720
2 18312  82.5550 141.6566 0012451 340.6184  19.4499 13.84264960671216
METEOR 2-17
1 18820  88005A   00335.67547758  .00000319  00000 1  26956-3 0  3819
2 18820  82.5441 192.3102 0017594  37.6240 322.6155 13.84923695648777
METEOR 2-18
1 19851  89018A   00334.76555093  .00000244  00000 1  20212-3 0  8696
2 19851  82.5208  63.4240 0014128  85.1652 275.1123 13.85109600593947
METEOR 2-19
1 20670  90057A   00335.50783610  .00000201  00000 1  16698-3 0  4123
2 20670  82.5447 135.3148 0017181   9.9112 350.2378 13.84261689526865
METEOR 2-20
1 20826  90086A   00335.57382544  .00000195  00000 1  16303-3 0  3861
2 20826  82.5268  69.2111 0012490 279.1415  80.8332 13.83806152513893
METEOR 2-21
1 22782  93055A   00354.22908625  .00000114  00000 1  90118-4 0  8694
2 22782  82.5481 122.4593 0023084  45.8512 314.4541 13.83302239368675
METEOR 3-2
1 19336  88064A   00334.84347162  .00000051  00000 1  10000-3 0  8868
2 19336  82.5398  95.3390 0017432 127.2979 232.9742 13.17027082593593
METEOR 3-3
1 20305  89086A   00335.34309882  .00000044  00000 1  10000-3 0  6820
2 20305  82.5453  79.5627 0005908 300.7923  59.2417 13.04463442530345
METEOR 3-4
1 21232  91030A   00334.92221318  .00000051  00000 1  10000-3 0  2860
2 21232  82.5380 302.6726 0014329  65.5728 294.6866 13.16515678461584
METEOR 3-6
1 22969  94003A   00334.95469042  .00000051  00000 1  10000-3 0  6967
2 22969  82.5640 192.6755 0015143 129.9934 230.2522 13.16806964329140
METEOSAT 4
1 19876  89020B   00326.20341360 -.00000095  00000 1  10000-3 0  5131
2 19876   5.2307  66.5398 0017831 302.6541  56.9944  0.97109501 22337
METEOSAT 5
1 21140  91015B   00353.94960615  .00000018  00000 1  10000-3 0  9190
2 21140   3.9060  74.4911 0001580 240.8438 177.1403  1.00275180 38117
METEOSAT 6
1 22912  93073B   00353.79395256 -.00000078  00000 1  00000 1 0  5436
2 22912   0.8528  77.8458 0002908 222.9759  63.6537  1.00270912 24362
METEOSAT 7
1 24932  97049B   00354.13285881 -.00000007  00000 1  00000 1 0  7386
2 24932   0.3174 307.2883 0001046 329.0562 219.4950  1.00273725 12084
UO-11
1 14781  84021B   00355.22291997  .00001955  00000 1  31074-3 0  3712
2 14781  98.0094 315.3436 0009594 224.4098 135.6344 14.73164336899688
UOSAT-12
1 25693  99021A   00355.48516302  .00000590  00000 1  10982-3 0  3944
2 25693  64.5611 262.3666 0050660 270.4672  89.0625 14.73548312 89753
RS-10/11
1 18129  87054A   00354.97241795  .00000066  00000 1  55782-4 0  9017
2 18129  82.9254  11.1849 0010201 264.7594  95.2398 13.72537042676052
FENGYUN 1C
1 25730  99025A   00353.97251878  .00000006  00000 1  27511-4 0  1684
2 25730  98.7180  29.9209 0015058  92.2400 268.0493 14.10346109 83012
HUBBLE
1 20580  90037B   00348.86440106  .00002526  00000 1  22616-3 0  4303
2 20580  28.4684 154.4470 0012482 166.5401 193.5523 14.92374623383265
RESURS
1 25394  98043A   00355.12403135  .00000355  00000 1  17707-3 0  9188
2 25394  98.7045  68.8179 0000875 206.1063 154.0101 14.22979460127089
UARS
1 21701  91063B   00348.93634354  .00000834  00000 1  88146-4 0  2104
2 21701  56.9847   7.5227 0004494  93.4853 266.6704 14.99144289506090

Frase del giorno:
* Spiacente, questo virus richiede Micro$oft Windows 3.xx.

Buon Natale e Felice Anno Nuovo
73 Ciao Renzo.

li, mercoled¨ 20 dicembre 2000  20.32 UTC

  /___/____/
 /    /   /
     ||
     ||I6KZR  Fermo, Italy
     ||BBS    I6KZR@I6DH.IMAR.ITA.EU
     ||e_mail i6kzr@arrl.net



Message sent with Sally V3.1. Windows packet software.


Read previous mail | Read next mail


 17.12.2025 01:16:10lGo back Go up